Location: Beaver Brook Station
(42.3793°N, 71.2203°W)
Time: 00:57:36
(UTC+00:00)

Cosmos 2219 - Pass Details

Date: 29 October 2020
Orbit: 832 x 862 km, 71.1° (Epoch: 05 December)

Event Time Altitude Azimuth Distance (km) Brightness Sun altitude
Rises 23:10:37 0° 330° (NNW) 3,446 6.7 -17.0°
Reaches altitude 10° 23:13:09 10° 325° (NW) 2,506 6.1 -17.5°
Maximum altitude 23:18:40 48° 253° (WSW) 1,114 4.2 -18.5°
Drops below altitude 10° 23:24:08 10° 180° (S) 2,488 5.7 -19.5°
Sets 23:26:39 0° 175° (S) 3,418 6.3 -20.0°
